Home   Weather   Guayaquil   Past weeks

Flag for Ecuador Past Weather in Guayaquil, Ecuador — Yesterday and Last 2 Weeks

Now
73 °F

Light rain. Passing clouds.


Feels Like: 70 °F
Forecast: 75 / 89 °F
Wind: 3 mph from East

Location: Guayaquil / Simon Bolivar

Current Time: Apr 30, 2017 at 4:20:39 am

Latest Report: Apr 30, 2017 at 4:00 am


Visibility: N/A

Pressure: 29.89 "Hg

Humidity: 94%

Dew Point: 72 °F

Location of GuayaquilLocation

Past Weather in Guayaquil — Graph

°F

Guayaquil Temperature Yesterday

Maximum temperature yesterday: 90 °F (at 1:00 pm)
Minimum temperature yesterday: 73 °F (at 10:00 pm)
Average temperature yesterday: 81 °F

High & Low Weather Summary for the Past Weeks

 TemperatureHumidityPressure
High91 °F (Apr 17, 5:00 pm)100% (Apr 18, 1:13 am)29.95 "Hg (Apr 18, 1:13 am)
Low73 °F (Apr 24, 11:00 pm)52% (Apr 28, 11:00 am)29.68 "Hg (Apr 15, 4:00 pm)
Average81 °F79%29.81 "Hg
* Reported Apr 15 3:00 am — Apr 30 3:00 am, Guayaquil, Weather by CustomWeather, © 2017

Note: Actual official high and low records may vary slightly from our data, if they occured in-between our weather recording intervals... More about our weather records

Advertising

Guayaquil Weather History for the Previous 24 Hours

Scroll right to see more
 ConditionsComfort  
Time TempWeatherWind HumidityBarometerVisibility
3:00 am
Sun, Apr 30
73 °FLight rain. Mostly cloudy.7 mph94%29.89 "HgN/A
2:00 am73 °FLight rain. Mostly cloudy.3 mph94%29.89 "HgN/A
1:32 am73 °FLight rain. Mostly cloudy.7 mph94%29.89 "HgN/A
1:00 am73 °FHeavy rain. Overcast.8 mph94%29.92 "Hg1 mi
12:00 am73 °FRain. Overcast.6 mph94%29.92 "Hg2 mi
11:00 pm
Sat, Apr 29
73 °FHeavy rain. Overcast.9 mph94%29.92 "Hg2 mi
10:40 pm73 °FHeavy rain. Overcast.10 mph94%29.92 "Hg2 mi
10:00 pm73 °FHeavy rain. Overcast.9 mph94%29.92 "Hg1 mi
9:32 pm75 °FHeavy rain. Mostly cloudy.5 mph83%29.92 "Hg2 mi
9:00 pm75 °FThunderstorms. Overcast.9 mph83%29.89 "Hg5 mi
8:32 pm79 °FThunderstorms. Overcast.10 mph84%29.86 "HgN/A
8:00 pm82 °FThunderstorms. Passing clouds.10 mph70%29.83 "HgN/A
7:00 pm84 °FThunderstorms. Passing clouds.14 mph70%29.80 "HgN/A
6:00 pm86 °FScattered showers. Broken clouds.12 mph70%29.77 "HgN/A
5:00 pm88 °FBroken clouds.6 mph66%29.74 "HgN/A
4:00 pm88 °FBroken clouds.5 mph66%29.74 "HgN/A
3:00 pm90 °FPartly sunny.8 mph63%29.77 "HgN/A
2:00 pm90 °FScattered clouds.5 mph59%29.77 "HgN/A
1:00 pm90 °FScattered clouds.5 mph59%29.80 "HgN/A
12:00 pm88 °FScattered clouds.5 mph59%29.83 "HgN/A
11:00 am88 °FPassing clouds.5 mph62%29.83 "HgN/A
10:00 am84 °FPassing clouds.3 mph66%29.86 "HgN/A
9:00 am84 °FPassing clouds.3 mph62%29.86 "HgN/A
8:00 am81 °FScattered clouds.3 mph74%29.86 "HgN/A
7:00 am77 °FScattered clouds.3 mph79%29.83 "HgN/A
6:00 am77 °FPassing clouds.3 mph83%29.83 "HgN/A
5:00 am77 °FPassing clouds.7 mph79%29.80 "HgN/A
4:00 am77 °FPassing clouds.5 mph79%29.80 "HgN/A
Weather by CustomWeather, © 2017

See weather overviewHow to use our weather pages